CZ-6A DEB, 66789

Orbit data source: Space-Track

CZ-6A DEB, 66789 is space debris in SSO originally from a launch on Fri, 11 Nov 2022 UTC launched from the Taiyaun Space Center, China (TSC). Debris objects in space refer to the collection of defunct objects orbiting the Earth. Examples of debris include non-operational satellites, rocket bodies, and fragments generated from explosions, collisions, or faulty payload assembly.

Loading next visibility...
Identifier
66789, 2022-151AJF
Orbit
SSO
Country
Flag of CNCN / PRC
Related business
Manufacturer
SAST
Mission
Spacecraft
Bus & Motor
Unknown
Mass
Unknown
Launch date (UTC)
2022-11-11 (4 years ago)
Launch vehicle
Unknown
Launch site
Taiyaun Space Center, China (TSC)
Object type
Payload
Rocket body
Debris
Shape & HBR
Unknown
Radar Cross Section
Small (<0.1 m²)

Expand to show TLE details & history
Last TLE update: 13 hours ago

TLE from 13 hours ago
0 CZ-6A DEB
1 66789U 22151AJF 26206.95105417  .00002567  00000-0  12070-2 0  9997
2 66789  98.8301 213.7800 0048790 210.3409 149.4942 14.20260631170832
Epoch: 2026-07-25T22:49Z
TLE epoch observation values (Epoch: 2026-07-25T22:49:31.080Z)
Latitude
0.00008°
Longitude
-72.25549°
Altitude
857.709 km
Speed
7.408 km/s
True Right ascension
14h 15m 07s
True Declination
0° 00' 00"
Sunlit
Object was in daylight at epoch
Visualization orbit readout
Latitude
Unknown
Longitude
Unknown
Altitude
Unknown
Speed
Unknown
Apparent Right ascension
Unknown
Apparent Declination
Unknown
Sunlit
N/A
Visualization observer readout
Local Sidereal Time
01:03:20
Azimuth
Unknown
Elevation
Unknown
Doppler factor
Unknown
Orbital elements
Apogee altitude
856.763 km
Perigee altitude
786.508 km
Semi-major axis
7,199.772 km
Eccentricity
0.00488
Inclination
98.8301°
RAAN
213.78°
Arg. of periapsis
210.3409°
True anomaly
149.77652°
Mean anomaly
149.4942°
Eccentric anomaly
149.63551°
Mean motion
3.55275 °/min
Orbital period
101.33 mins
BSTAR
0.001207
Loading maneuver chart data...
Computing Atmospheric mass density...

Documentation

Showing up to 5 results
|